Showing default

COSMOS 2206 (GLONASS), 22056

Orbit data source: Space-Track

COSMOS 2206 (GLONASS), 22056 is a payload satellite in MEO that was launched on Thu, 30 Jul 1992 UTC via a PROTON-K/DM-2 launch vehicle from the Tyuratam Missile And Space Complex (TTMTR). Payload-class satellites include a variety of spacecraft equipped with specific instruments for various scientific and technological missions. These include communications satellites like Starlink; space stations such as the ISS; scientific satellites like the Hubble; Earth observation satellites from companies like Planet Labs, Umbra, and HawkEye 360; GPS; miniature CubeSats for education and research; and military/defense satellites.

Loading next visibility...
Identifier
22056, 1992-047A
Orbit
MEO
Last TLE update
6 days ago
Origin
Manufacturer
Polyot
Mission
Non-operational Defense Navigation
Bus & Motor
URAGAN, Unknown motor
Mass
1,300 kg wet, ~1,200 kg dry
Launch date (UTC)
1992-07-30 (33 years ago)
Launch vehicle
PROTON-K/DM-2
Launch site
Tyuratam Missile And Space Complex (TTMTR)
Object type
Payload
Rocket body
Debris
Shape & HBR
Cyl + 2 Pan, 8.356 m
Radar Cross Section
14.707 m², Large (>1 m²)

Expand to show TLE details & history

TLE from 6 days ago
0 COSMOS 2206 (GLONASS)
1 22056U 92047A   25145.01662758 -.00000042  00000-0  00000-0 0  9996
2 22056  64.3976 315.7727 0010120 245.1841 137.4839  2.13107397255351
Epoch: 2025-05-25T00:23Z
TLE epoch observation values (Epoch: 2025-05-25T00:23:56.622Z)
Latitude
20.44123°
Longitude
77.21107°
Altitude
19,148.938 km
Speed
3.951 km/s
True Right ascension
21h 44m 11s
True Declination
20° 24' 35"
Sunlit
Object was in daylight at epoch
Visualization orbit readout
Latitude
-16.89881°
Longitude
58.35215°
Altitude
19,136.588 km
Speed
3.952 km/s
Apparent Right ascension
20h 53m 43s
Apparent Declination
-22° 00' 42"
Sunlit
Object is in daylight
Visualization observer readout
Local Sidereal Time
11:05:00
Azimuth
67.081° ENE
Elevation
-56.936°
Doppler factor
1
Orbital elements
Apogee altitude
19,154.906 km
Perigee altitude
19,103.279 km
Semi-major axis
25,507.23 km
Eccentricity
0.00101
Inclination
64.3976°
RAAN
315.7727°
Arg. of periapsis
245.1841°
True anomaly
Unknown
Mean anomaly
137.4839°
Eccentric anomaly
Unknown
Mean motion
0.53278 °/min
Orbital period
675.7 mins
BSTAR
0
Loading maneuver chart data...
Loading SW <> Apogee altitude chart data...
Loading historical data...
Loading historical data...
Loading historical data...
Loading historical data...
Loading historical data...
Loading historical data...
Loading historical data...

COSMOS 2206 (GLONASS) Visibility forecast

Observer location: undefined°, undefined°

Span
Click to sort rows by Start time (UTC) header in descending order
Start Az.
Max El. time (UTC)
Max El. Az.
Max El.
End time (UTC)
End Az.
358 mins2025-05-31 12:39:14.787Z209.505° SW2025-05-31 15:11:14.787Z311.899° NW42.415°2025-05-31 18:37:14.787Z96.828° ESE
|